Weather History for KAUW - June, 2013

Change the Weather History Date:

Tuesday, June 25, 2013

  Actual Average Record
Temperature  
Mean Temperature 74 °F 68 °F  
Max Temperature 82 °F 78 °F 92 °F (1966)
Min Temperature 66 °F 57 °F 42 °F (2004)
Degree Days  
Heating Degree Days 0 2  
Month to date heating degree days 86 82  
Since 1 June heating degree days 86 82  
Since 1 July heating degree days 8252 8242  
Cooling Degree Days 9 4  
Month to date cooling degree days 58 62  
Year to date cooling degree days 95 81  
Since 1 June cooling degree days 58 62  
Growing Degree Days 24 (Base 50)    
Moisture  
Dew Point 64 °F    
Average Humidity 74    
Maximum Humidity 93    
Minimum Humidity 54    
Precipitation  
Precipitation 0.00 in 0.14 in 1.75 in (1998)
Month to date precipitation 5.15 3.65  
Year to date precipitation 19.62 13.56  
Snow  
Snow 0.00 in 0.00 in 0.00 in ()
Month to date snowfall 0.0 0.0  
Since 1 June snowfall 0.0 0.0  
Since 1 July snowfall 78.8 59.6  
Snow Depth 0.00 in    
Sea Level Pressure  
Sea Level Pressure 29.84 in    
Wind  
Wind Speed 4 mph (SSW)    
Max Wind Speed 12 mph    
Max Gust Speed 15 mph    
Visibility 10 miles    
Events      
T = Trace of Precipitation, MM = Missing Value Source: NWS Daily Summary

Daily Weather History Graph

Daily Weather History Graph

Search for Another Location

Airport or City:

Trip Planner

Search our weather history database for the weather conditions in past years. The results will help you decide how hot, cold, wet, or windy it might be!

Date:

Astronomy

Jun. 25, 2013 Rise Set
Actual Time 5:13 AM CDT 8:49 PM CDT
Civil Twilight 4:35 AM CDT 9:26 PM CDT
Nautical Twilight 3:46 AM CDT 10:15 PM CDT
Astronomical Twilight 2:40 AM CDT 11:21 PM CDT
Moon 10:25 PM CDT (6/25) 8:00 AM CDT (6/25)
Length of Visible Light 16h 50m
Length of Day
15h 35m
Waning Gibbous, 92% of the Moon is Illuminated
Jun 25
Waning Gibbous
Jun 29
Last Quarter
Jul 8
New
Jul 15
First Quarter
Jul 22
Full

Hourly Weather History & Observations

Time (CDT) Temp. Heat Index Dew Point Humidity Pressure Visibility Wind Dir Wind Speed Gust Speed Precip Events Conditions
12:54 AM 69.1 °F - 66.0 °F 90% 29.85 in 10.0 mi SSW 4.6 mph - N/A   Clear
1:54 AM 68.0 °F - 66.0 °F 93% 29.85 in 10.0 mi Calm Calm - N/A   Partly Cloudy
2:54 AM 68.0 °F - 64.0 °F 87% 29.85 in 10.0 mi Calm Calm - N/A   Clear
3:54 AM 66.9 °F - 64.0 °F 90% 29.85 in 10.0 mi Calm Calm - N/A   Clear
4:54 AM 66.0 °F - 64.0 °F 93% 29.86 in 10.0 mi SW 3.5 mph - N/A   Clear
5:54 AM 66.0 °F - 63.0 °F 90% 29.86 in 10.0 mi Calm Calm - N/A   Clear
6:54 AM 68.0 °F - 64.0 °F 87% 29.83 in 10.0 mi Calm Calm - N/A   Clear
7:54 AM 68.0 °F - 64.0 °F 87% 29.88 in 10.0 mi SW 9.2 mph - N/A   Scattered Clouds
8:01 AM 68.0 °F - 64.4 °F 88% 29.89 in 10.0 mi SW 9.2 mph - N/A   Mostly Cloudy
8:39 AM 69.8 °F - 64.4 °F 83% 29.89 in 10.0 mi WSW 8.1 mph - N/A   Mostly Cloudy
8:54 AM 69.1 °F - 64.0 °F 84% 29.89 in 10.0 mi SW 9.2 mph - N/A   Mostly Cloudy
9:11 AM 68.0 °F - 64.4 °F 88% 29.89 in 10.0 mi SSW 9.2 mph - N/A   Overcast
9:31 AM 69.8 °F - 62.6 °F 78% 29.88 in 10.0 mi SSW 6.9 mph - N/A   Overcast
9:54 AM 69.1 °F - 63.0 °F 81% 29.87 in 10.0 mi SSW 3.5 mph - N/A   Overcast
10:54 AM 72.0 °F - 64.0 °F 76% 29.86 in 10.0 mi Calm Calm - N/A   Scattered Clouds
11:54 AM 77.0 °F - 64.0 °F 64% 29.83 in 10.0 mi Variable 3.5 mph - N/A   Clear
12:54 PM 78.1 °F - 64.0 °F 62% 29.85 in 10.0 mi SSW 4.6 mph - N/A   Clear
1:54 PM 80.1 °F 81.9 °F 64.9 °F 60% 29.84 in 10.0 mi South 8.1 mph - N/A   Clear
2:54 PM 81.0 °F 82.5 °F 64.0 °F 56% 29.84 in 10.0 mi SSW 6.9 mph - N/A   Clear
3:54 PM 79.0 °F - 63.0 °F 58% 29.84 in 10.0 mi SSW 9.2 mph - N/A   Mostly Cloudy
4:54 PM 79.0 °F - 62.1 °F 56% 29.81 in 10.0 mi South 4.6 mph - N/A   Clear
5:54 PM 80.1 °F 81.5 °F 63.0 °F 56% 29.80 in 10.0 mi SSW 3.5 mph - N/A   Clear
6:54 PM 79.0 °F - 64.9 °F 62% 29.81 in 10.0 mi SW 4.6 mph - N/A   Mostly Cloudy
7:54 PM 78.1 °F - 66.0 °F 66% 29.80 in 10.0 mi SW 3.5 mph - N/A   Clear
8:54 PM 75.9 °F - 66.9 °F 74% 29.80 in 10.0 mi Calm Calm - N/A   Clear
9:54 PM 73.0 °F - 66.9 °F 81% 29.81 in 10.0 mi Calm Calm - N/A   Clear
10:54 PM 70.0 °F - 66.9 °F 90% 29.79 in 10.0 mi East 4.6 mph - N/A   Clear
11:54 PM 69.1 °F - 66.9 °F 93% 29.78 in 10.0 mi SSE 3.5 mph - N/A   Clear